Regional Weather Roundup
Issued by NWS San Diego, CA

Home | Current Version | Previous Version | Text Only | Print | Product List | Glossary On
Versions: 1 2 3 4 5 6 7 8 9 10 11 12 13 14 15 16 17 18 19 20 21 22 23 24 25 26 27 28 29 30 31 32 33 34 35 36 37 38 39 40 41 42 43 44 45 46 47 48 49 50
000
ASUS46 KSGX 221010
RWRSGX

SAN DIEGO HOURLY WEATHER ROUNDUP
NATIONAL WEATHER SERVICE SAN DIEGO CA
300 AM PDT TUE JUL 22 2014

NOTE: "FAIR" INDICATES FEW OR NO CLOUDS BELOW 12,000 FEET WITH NO
SIGNIFICANT WEATHER AND/OR OBSTRUCTIONS TO VISIBILITY.

CAZ042-043-060-061-PZZ750-775-221100-

GREATER SAN DIEGO AREA

CITY           SKY/WX    TMP DP  RH WIND       PRES   REMARKS
LINDBERGH FLD  CLOUDY    71  63  75 N5        30.03S
POINT LOMA       N/A     66  61  84 NW9         N/A
NATIONAL CITY    N/A     69  64  85 N3        30.03S
CHULA VISTA      N/A     68  64  88 CALM      29.97R
IMPERIAL BEACH CLOUDY    70  63  78 N5        30.03R
BROWN FIELD    MOCLDY    64  61  90 CALM      30.03R
MIRAMAR MCAS   MOCLDY    67  62  84 NW8       30.03S
MONTGOMERY FLD CLOUDY    68  62  81 NW6       30.03S

$$

NORTH SAN DIEGO COUNTY

CITY           SKY/WX    TMP DP  RH WIND       PRES   REMARKS
CAMP PENDLETON CLEAR     60  55  83 N3        30.02R
OCEANSIDE AP   CLEAR     61  58  90 CALM      30.01S
VISTA            N/A     62  59  89 CALM      30.00R
CARLSBAD       PTCLDY    66  63  90 CALM      30.02R
DEL MAR          N/A     67  65  93 CALM      30.04S
LA JOLLA SCRIP   N/A     67  66  94 N3        30.00R
FALLBROOK        N/A     63  63 100 CALM      30.04R
ESCONDIDO        N/A     64  61  88 CALM      30.04R
SAN MARCOS       N/A     64  60  87 CALM      30.00R
POWAY            N/A     62  58  88 CALM      30.03R
R. PENASQUITOS   N/A     67  64  90 CALM      30.03R

$$

EAST SAN DIEGO COUNTY

CITY           SKY/WX    TMP DP  RH WIND       PRES   REMARKS
RAMONA         CLEAR     55  52  89 W3        30.05R
GILLESPIE FLD  FAIR      64  63  94 W3        30.05R
LA MESA          N/A     65  63  91 CALM      29.97R
JAMUL            N/A     60  58  91 CALM      30.00R
DESCANSO N       N/A     57  28  32 E2        29.90R
MT. LAGUNA OBS   N/A     67   8  10 S6        29.82S
CAMPO            N/A     54  42  64 CALM      30.05S

$$

ORANGE COUNTY AND THE LOS ANGELES BASIN

CITY           SKY/WX    TMP DP  RH WIND       PRES   REMARKS
JOHN WAYNE AP  CLEAR     69  62  78 CALM      30.02R
LAGUNA BEACH     N/A     63  60  91 N1        29.99R
LAKE FOREST FR   N/A     62  57  84 CALM      29.93R
SANTA ANA        N/A     66  61  85 CALM      29.98R
HUNTINGTON BCH   N/A     64  62  93 CALM      30.04R
LOS ALAMITOS   FAIR      63  59  88 CALM      30.03R
FULLERTON      CLEAR     67  61  81 CALM      30.02R
LONG BEACH     CLEAR     67  62  84 NW3       30.02R
L.A. AP        PTCLDY    67  62  84 SE3       30.02R
L.A. DOWNTOWN  CLEAR     67  61  81 SE3       30.02R

$$

THE INLAND EMPIRE

CITY           SKY/WX    TMP DP  RH WIND       PRES   REMARKS
CORONA         CLEAR     61  57  86 MISG      30.04R
CHINO          CLEAR     62  58  86 W3        30.04R
ONTARIO        PTCLDY    67  60  78 W6        30.03R
RIVERSIDE AP   CLEAR     67  59  75 CALM      30.03R
RIV CYN CREST    N/A     67  65  96 CALM      30.01R
MORENO VALLEY    N/A     64  60  87 CALM      28.13R
MARCH ARB      CLEAR     63  57  80 W2        30.05R
HORSETHIEF CYN   N/A     64  54  69 SW2       30.03R
PERRIS           N/A     66  59  79 CALM        N/A
MENIFEE          N/A     67  60  79 CALM      30.10R
HEMET EAST       N/A     67  48  52 CALM      30.00S
FRENCH VALLEY  FAIR      64  57  77 CALM      30.04F
TEMECULA         N/A     64  59  85 CALM      30.01R

$$

SAN BERNARDINO AND RIVERSIDE COUNTY MOUNTAINS

CITY           SKY/WX    TMP DP  RH WIND       PRES   REMARKS
BIG BEAR AP    CLEAR     43  30  61 CALM      30.33S
BIG BEAR SHEA    N/A     43  22  43 CALM      30.04R
ANGELUS OAKS     N/A     57  26  30 CALM      29.90S
PINE COVE        N/A     65  31  28 CALM      29.96F

$$

SOUTHERN DESERT INCLUDING THE COACHELLA VALLEY

CITY           SKY/WX    TMP DP  RH WIND       PRES   REMARKS
PALM SPRINGS   CLEAR     81  56  42 CALM      29.91S
THOUSAND PALMS   N/A     85  51  30 W10       29.85S
PALM DESERT      N/A     81  58  45 CALM      30.84S
THERMAL        CLEAR     85  54  34 NW10      29.84S
BLYTHE         CLEAR     82  42  24 CALM      29.87R
IMPERIAL AP    CLEAR     81  44  27 CALM      29.84S
EL CENTRO NAS  CLEAR     79  44  28 CALM      29.84R
YUMA AZ        CLEAR     84  53  34 NW3       29.86S

$$

UPPER DESERT

CITY           SKY/WX    TMP DP  RH WIND       PRES   REMARKS
VICTORVILLE AP CLEAR     64  39  39 S3        30.09S
HESPERIA         N/A     65  47  53 W5        30.05S
GRAY BUTTE AP  NOT AVBL
PALMDALE       PTCLDY    73  51  46 SW6       30.07R
LANCASTER      PTCLDY    73  51  46 SW10      30.05S
EDWARDS AFB    CLEAR     71  47  42 S9        30.03R
DAGGETT        CLEAR     77  44  30 W9        30.01S
29 PALMS N     CLEAR     79  42  26 NW9       30.07S
NEEDLES        CLEAR     87  30  13 CALM      29.90S

$$

REGIONAL REPORTS

CITY           SKY/WX    TMP DP  RH WIND       PRES   REMARKS
SANTA BARBARA  PTCLDY    66  60  81 CALM      30.01R
SANDBERG       PTCLDY    67  52  58 W9        30.19S
MT. WILSON       N/A     63  36  36 MISG        N/A
LAS VEGAS NV   CLEAR     85  34  16 SW9       29.95R
PHOENIX AZ     CLEAR     90  51  26 SW3       29.88S
TIJUANA        PTCLDY    64  59  82 NW8       30.05S
ENSENADA NW      N/A     66  32  28 W7        29.98S

$$

OFFSHORE ISLANDS

CITY           SKY/WX    TMP DP  RH WIND       PRES   REMARKS
CATALINA ARPT  FOG       61  59  93 SW12      30.06S VSB 1/2
SAN NICOLAS IS MOCLDY   N/A N/A N/A W17       30.03S

$$

MARINE AND OFFSHORE BUOY REPORTS

STATION/POSITION SKY/WX   TEMP    WIND        PRES    SWELL
                          AIR SEA DIR/SP/G            HT/PER/DIR
                          (F)     (DEG/KT/KT) (MB)    (FT/S/D)
TANNER BANKS               66 67  310/ 14/ 16 1017.6R   2/290/11
S CLEMENTE BASIN           67 70  320/ 12/ 16 1016.7R   2/230/13
SAN NICOLAS IS.               67                N/A     2/300/11
SO. S. ROSA ISLA           67 69  310/ 14/ 17 1016.8R   3/11
W. S. BARBARA CH           66 67  320/ 17/ 19 1016.4S   2/270/12
M. S. BARBARA CH           67 67  270/ 12/ 14 1016.2F
S. MONICA BASIN            68 70  320/  6/ 10 1016.5R   2/280/ 5
S PEDRO CHANNEL               70                N/A
DANA POINT                    68                N/A     2/200/14
CMP PENDLETON NS              66                N/A     2/220/13
OCEANSIDE OFFSHR              67                N/A     2/210/14
TORREY PINES OTR              71                N/A     2/210/13
LA JOLLA 1                 69 64  350/  8/  9 1016.7S
MISSION BAY BUOY              69                N/A     2/220/12
SAN DIEGO BAY                 73              1017.0F
POINT LOMA SOUTH              70                N/A     2/220/13

$$



USA.gov is the U.S. government's official web portal to all federal, state and local government web resources and services.